| time (UTC) | temp F | wind direction | speed MPH | gust MPH | rain 1hr in | rain 24hr in | rain mn in | humidity % | barometer mb |
| 20260904044536 | 60 | 128 | 0.0 | 0.0 | 0.00 | 0.08 | 0.00 | 82 | 1012.6 |
| 20260904043033 | 60 | 128 | 0.0 | 0.0 | 0.00 | 0.08 | 0.00 | 82 | 1012.7 |
| 20260904041535 | 60 | 128 | 0.0 | 0.0 | 0.00 | 0.08 | 0.00 | 82 | 1012.9 |
| 20260904040031 | 60 | 128 | 0.0 | 0.0 | 0.00 | 0.08 | 0.00 | 82 | 1012.9 |
| 20260904034531 | 61 | 128 | 0.0 | 0.0 | 0.00 | 0.08 | 0.08 | 81 | 1013.0 |
| 20260904033032 | 61 | 128 | 0.0 | 0.0 | 0.00 | 0.08 | 0.08 | 82 | 1012.8 |
| 20260904031529 | 62 | 128 | 0.0 | 0.0 | 0.00 | 0.08 | 0.08 | 82 | 1012.8 |
| 20260904030028 | 62 | 128 | 0.0 | 0.0 | 0.00 | 0.08 | 0.08 | 82 | 1012.6 |
| 20260904024528 | 62 | 128 | 0.0 | 0.0 | 0.00 | 0.08 | 0.08 | 81 | 1012.9 |
| 20260904023027 | 62 | 128 | 0.0 | 0.0 | 0.00 | 0.08 | 0.08 | 81 | 1012.9 |
| 20260904021535 | 62 | 128 | 0.0 | 0.0 | 0.00 | 0.08 | 0.08 | 81 | 1012.7 |
| 20260904020026 | 63 | 128 | 0.0 | 0.0 | 0.00 | 0.08 | 0.08 | 81 | 1012.7 |
| 20260904014528 | 63 | 128 | 0.0 | 1.0 | 0.00 | 0.08 | 0.08 | 81 | 1012.8 |
| 20260904013025 | 63 | 128 | 0.0 | 0.0 | 0.00 | 0.08 | 0.08 | 80 | 1012.9 |
| 20260904011525 | 64 | 128 | 0.0 | 0.0 | 0.00 | 0.08 | 0.08 | 80 | 1012.9 |
| 20260904010024 | 64 | 128 | 0.0 | 0.0 | 0.00 | 0.08 | 0.08 | 79 | 1012.8 |
| 20260904004523 | 65 | 128 | 0.0 | 0.0 | 0.00 | 0.08 | 0.08 | 78 | 1012.6 |
| 20260904003023 | 66 | 128 | 0.0 | 0.0 | 0.00 | 0.08 | 0.08 | 78 | 1012.3 |
| 20260904001526 | 66 | 128 | 0.0 | 0.0 | 0.00 | 0.08 | 0.08 | 76 | 1012.1 |
| 20260904000022 | 67 | 128 | 0.0 | 0.0 | 0.00 | 0.08 | 0.08 | 74 | 1011.8 |
| 20260903234521 | 68 | 128 | 0.0 | 0.0 | 0.00 | 0.08 | 0.08 | 74 | 1011.7 |
| 20260903233021 | 69 | 128 | 0.0 | 0.0 | 0.00 | 0.08 | 0.08 | 73 | 1011.5 |
| 20260903231521 | 70 | 115 | 0.0 | 1.0 | 0.00 | 0.08 | 0.08 | 73 | 1011.5 |
| 20260903230021 | 71 | 115 | 0.0 | 2.0 | 0.00 | 0.08 | 0.08 | 72 | 1011.7 |
| 20260903224519 | 72 | 34 | 1.0 | 3.0 | 0.00 | 0.08 | 0.08 | 71 | 1011.9 |
| 20260903223022 | 73 | 306 | 0.0 | 1.0 | 0.00 | 0.08 | 0.08 | 72 | 1011.9 |
| 20260903221523 | 74 | 306 | 0.0 | 3.0 | 0.00 | 0.08 | 0.08 | 70 | 1011.5 |
| 20260903220017 | 74 | 314 | 0.0 | 5.0 | 0.00 | 0.08 | 0.08 | 69 | 1011.7 |
| 20260903214515 | 75 | 298 | 0.0 | 3.0 | 0.00 | 0.08 | 0.08 | 68 | 1011.8 |
| 20260903213014 | 77 | 229 | 0.0 | 4.0 | 0.00 | 0.08 | 0.08 | 67 | 1011.8 |
| 20260903211514 | 77 | 32 | 0.0 | 3.0 | 0.00 | 0.08 | 0.08 | 67 | 1011.8 |
| 20260903210013 | 77 | 165 | 0.0 | 3.0 | 0.00 | 0.08 | 0.08 | 65 | 1011.8 |
| 20260903204514 | 76 | 223 | 0.0 | 3.0 | 0.00 | 0.08 | 0.08 | 64 | 1011.7 |
| 20260903203011 | 75 | 12 | 0.0 | 4.0 | 0.00 | 0.08 | 0.08 | 69 | 1012.0 |
| 20260903201510 | 76 | 321 | 0.0 | 2.0 | 0.00 | 0.08 | 0.08 | 67 | 1012.1 |
| 20260903200007 | 77 | 96 | 0.0 | 4.0 | 0.00 | 0.08 | 0.08 | 66 | 1012.2 |
| 20260903194505 | 77 | 82 | 1.0 | 4.0 | 0.00 | 0.08 | 0.08 | 63 | 1012.5 |
| 20260903193003 | 77 | 288 | 1.0 | 4.0 | 0.00 | 0.08 | 0.08 | 62 | 1012.7 |
| 20260903191559 | 75 | 82 | 0.0 | 9.0 | 0.00 | 0.08 | 0.08 | 65 | 1012.7 |
| 20260903190057 | 75 | 33 | 0.0 | 3.0 | 0.00 | 0.08 | 0.08 | 64 | 1012.8 |
| 20260903184555 | 75 | 279 | 1.0 | 4.0 | 0.00 | 0.08 | 0.08 | 65 | 1013.1 |
| 20260903183049 | 75 | 270 | 0.0 | 4.0 | 0.00 | 0.08 | 0.08 | 64 | 1013.2 |
| 20260903181545 | 73 | 129 | 1.0 | 5.0 | 0.00 | 0.08 | 0.08 | 71 | 1013.2 |
| 20260903180047 | 71 | 46 | 0.0 | 4.0 | 0.00 | 0.08 | 0.08 | 72 | 1013.4 |
| 20260903174537 | 70 | 355 | 1.0 | 2.0 | 0.00 | 0.08 | 0.08 | 73 | 1013.5 |
| 20260903173034 | 69 | 360 | 0.0 | 3.0 | 0.00 | 0.08 | 0.08 | 74 | 1013.8 |
| 20260903171543 | 69 | 134 | 1.0 | 3.0 | 0.00 | 0.08 | 0.08 | 73 | 1013.9 |
| 20260903170041 | 69 | 207 | 0.0 | 2.0 | 0.00 | 0.08 | 0.08 | 74 | 1013.9 |
| 20260903164531 | 68 | 98 | 1.0 | 4.0 | 0.00 | 0.08 | 0.08 | 75 | 1014.0 |
| 20260903163027 | 68 | 192 | 0.0 | 3.0 | 0.00 | 0.08 | 0.08 | 75 | 1014.2 |
| 20260903161524 | 67 | 58 | 0.0 | 3.0 | 0.00 | 0.08 | 0.08 | 76 | 1014.2 |
| 20260903160021 | 66 | 45 | 0.0 | 2.0 | 0.00 | 0.08 | 0.08 | 77 | 1014.4 |
| 20260903154519 | 65 | 101 | 0.0 | 2.0 | 0.00 | 0.08 | 0.08 | 78 | 1014.6 |
| 20260903153015 | 64 | 101 | 0.0 | 2.0 | 0.00 | 0.08 | 0.08 | 78 | 1014.7 |
| 20260903151515 | 64 | 101 | 0.0 | 2.0 | 0.00 | 0.08 | 0.08 | 80 | 1014.9 |
| 20260903150032 | 63 | 104 | 0.0 | 2.0 | 0.00 | 0.08 | 0.08 | 80 | 1015.3 |
| 20260903144521 | 63 | 101 | 1.0 | 3.0 | 0.00 | 0.08 | 0.08 | 80 | 1015.4 |
| 20260903143016 | 63 | 101 | 0.0 | 2.0 | 0.00 | 0.08 | 0.08 | 80 | 1015.4 |
| 20260903141509 | 63 | 16 | 0.0 | 0.0 | 0.00 | 0.08 | 0.08 | 81 | 1015.3 |
| 20260903140022 | 63 | 28 | 0.0 | 1.0 | 0.00 | 0.08 | 0.08 | 81 | 1015.6 |
| 20260903134507 | 63 | 28 | 0.0 | 0.0 | 0.00 | 0.08 | 0.08 | 81 | 1015.5 |
| 20260903133006 | 63 | 28 | 0.0 | 2.0 | 0.00 | 0.08 | 0.08 | 81 | 1015.3 |
| 20260903131506 | 63 | 28 | 0.0 | 2.0 | 0.00 | 0.08 | 0.08 | 82 | 1015.3 |
| 20260903130005 | 63 | 360 | 0.0 | 1.0 | 0.00 | 0.08 | 0.08 | 82 | 1015.3 |
| 20260903124504 | 62 | 360 | 0.0 | 1.0 | 0.00 | 0.08 | 0.08 | 82 | 1015.4 |
| 20260903123101 | 61 | 360 | 0.0 | 1.0 | 0.00 | 0.08 | 0.08 | 82 | 1015.5 |
| 20260903121558 | 61 | 15 | 0.0 | 0.0 | 0.00 | 0.08 | 0.08 | 82 | 1015.7 |
| 20260903120111 | 61 | 15 | 0.0 | 0.0 | 0.00 | 0.08 | 0.08 | 82 | 1015.8 |
| 20260903114556 | 61 | 15 | 0.0 | 0.0 | 0.00 | 0.08 | 0.08 | 82 | 1015.9 |
| 20260903113058 | 60 | 15 | 0.0 | 0.0 | 0.00 | 0.08 | 0.08 | 82 | 1016.0 |
| 20260903111552 | 60 | 15 | 0.0 | 0.0 | 0.00 | 0.08 | 0.08 | 82 | 1016.1 |
| 20260903110056 | 60 | 15 | 0.0 | 0.0 | 0.00 | 0.08 | 0.08 | 82 | 1016.0 |
| 20260903104557 | 60 | 15 | 0.0 | 0.0 | 0.00 | 0.08 | 0.08 | 82 | 1015.8 |
| 20260903103050 | 60 | 15 | 0.0 | 0.0 | 0.00 | 0.08 | 0.08 | 82 | 1015.8 |
| 20260903101552 | 60 | 15 | 0.0 | 0.0 | 0.00 | 0.08 | 0.08 | 82 | 1015.8 |
| 20260903100049 | 60 | 15 | 0.0 | 0.0 | 0.00 | 0.08 | 0.08 | 82 | 1015.5 |
| 20260903094558 | 60 | 15 | 0.0 | 1.0 | 0.00 | 0.08 | 0.08 | 82 | 1015.7 |
| 20260903093047 | 60 | 15 | 0.0 | 1.0 | 0.00 | 0.08 | 0.08 | 81 | 1015.8 |
| 20260903091556 | 60 | 15 | 0.0 | 0.0 | 0.00 | 0.08 | 0.08 | 81 | 1015.7 |
| 20260903090044 | 60 | 15 | 0.0 | 0.0 | 0.00 | 0.08 | 0.08 | 81 | 1016.0 |
| 20260903084547 | 60 | 15 | 0.0 | 0.0 | 0.00 | 0.08 | 0.08 | 81 | 1016.3 |
| 20260903083041 | 60 | 15 | 0.0 | 0.0 | 0.00 | 0.08 | 0.08 | 81 | 1016.2 |
| 20260903081541 | 60 | 15 | 0.0 | 0.0 | 0.00 | 0.08 | 0.08 | 81 | 1016.4 |
| 20260903080048 | 60 | 15 | 0.0 | 1.0 | 0.00 | 0.08 | 0.08 | 81 | 1016.3 |
| 20260903074545 | 60 | 15 | 0.0 | 2.0 | 0.00 | 0.08 | 0.08 | 81 | 1016.5 |
| 20260903073037 | 61 | 15 | 0.0 | 0.0 | 0.00 | 0.08 | 0.08 | 80 | 1016.7 |
| 20260903071536 | 61 | 15 | 0.0 | 0.0 | 0.01 | 0.08 | 0.08 | 80 | 1016.7 |
| 20260903070034 | 61 | 15 | 0.0 | 0.0 | 0.07 | 0.08 | 0.08 | 79 | 1016.9 |
| 20260903064533 | 61 | 15 | 0.0 | 0.0 | 0.08 | 0.08 | 0.08 | 76 | 1016.9 |
| 20260903063031 | 61 | 15 | 0.0 | 1.0 | 0.08 | 0.08 | 0.08 | 74 | 1016.8 |
| 20260903061535 | 62 | 15 | 0.0 | 1.0 | 0.06 | 0.06 | 0.06 | 74 | 1017.2 |
| 20260903060037 | 63 | 35 | 0.0 | 3.0 | 0.01 | 0.01 | 0.01 | 72 | 1017.1 |
| 20260903054525 | 63 | 59 | 0.0 | 4.0 | 0.00 | 0.00 | 0.00 | 70 | 1017.0 |
| 20260903053029 | 64 | 55 | 2.0 | 9.0 | 0.00 | 0.00 | 0.00 | 69 | 1017.5 |
| 20260903051518 | 64 | 71 | 1.0 | 4.0 | 0.00 | 0.00 | 0.00 | 68 | 1017.7 |
| 20260903050017 | 64 | 88 | 1.0 | 6.0 | 0.00 | 0.00 | 0.00 | 68 | 1018.0 |